Content
SEND FEEDBACK

Daily
Averages
Monthly
Summary
United States of America

GLENS FALLS, NEW YORK


Home > North America > United States > New York
Elevation: 321 feet     Latitude: 43 21N     Longitude: 073 37W

WEATHER
 
SELECT A DAY
Number of Records: 213,181;   Date Range: 1/1/95 - 8/30/14
 
SHARE

PRINT THIS DATA

[ ← Previous Day ]
WEATHER ALMANAC - MAY 6, 2013
[ Next Day → ]
[ °C ]   °F
Weather ElementAverageHighLow
Temperature59.7 °F75 °F (3:53 pm)48 °F (4:53 am)
Dewpoint35.7 °F44.1 °F (10:53 am)16 °F (3:53 pm)
Humidity47.8 %77 % (5:53 am)11 % (3:53 pm)
Barometer30.16 in30.25 in (7:53 am)30.06 in (6:53 pm)
Wind Speed4.6 mph10.4 mph (7:53 am)
Weather ElementAverage
Visibility10 mi
Wind DirectionSSE (143.5 °)

Weather ElementTotal
Precipitation---
Heating Degree Days3.5 (Base 65)
Growing Degree Days11.5 (Base 50)
Averaged from 23 records on May 6, 2013
WEATHER CONDITIONS BREAKOUT
WIND DIRECTION BREAKOUT
WEATHER BY HOUR - MAY 6, 2013
[ °C ]   °F
Local TimeTemperatureDewpointHumidityBarometerVisibilityWind DirectionWind SpeedGust SpeedPrecipitationEventsConditions
1:53 AM54.0 °F39.9 °F59 %30.20 in10.0 miSSW (210°)3.5 mphClear
2:53 AM51.1 °F39.9 °F66 %30.20 in10.0 miSouth (190°)6.9 mphClear
3:53 AM48.9 °F39.9 °F71 %30.20 in10.0 miSSW (200°)5.8 mphClear
4:53 AM48.0 °F39.9 °F74 %30.21 in10.0 miSSW (200°)4.6 mphClear
5:53 AM48.0 °F41.0 °F77 %30.22 in10.0 miSW (220°)5.8 mphClear
6:53 AM50.0 °F42.1 °F74 %30.24 in10.0 miSSW (210°)6.9 mphClear
7:53 AM51.1 °F42.1 °F71 %30.25 in10.0 miSouth (190°)10.4 mphClear
8:53 AM53.1 °F42.1 °F66 %30.25 in10.0 miSouth (180°)6.9 mphClear
9:53 AM57.9 °F43.0 °F58 %30.24 in9.0 miSSW (200°)6.9 mphClear
10:53 AM62.1 °F44.1 °F52 %30.23 in10.0 miSSW (210°)4.6 mphClear
11:53 AM66.0 °F41.0 °F40 %30.21 in10.0 miSouth (170°)6.9 mphClear
12:53 PM69.1 °F34.0 °F27 %30.18 in10.0 miSouth (170°)4.6 mphClear
1:53 PM73.0 °F34.0 °F24 %30.15 in10.0 miSouth (190°)4.6 mphClear
2:53 PM73.9 °F27.0 °F18 %30.13 in10.0 miSSE (160°)6.9 mphClear
3:53 PM75.0 °F16.0 °F11 %30.11 in10.0 miVariable3.5 mphClear
4:53 PM73.9 °F26.1 °F17 %30.09 in10.0 miSSE (150°)5.8 mphClear
5:53 PM75.0 °F25.0 °F16 %30.08 in10.0 miSW (230°)4.6 mphClear
6:53 PM73.0 °F21.9 °F15 %30.06 in10.0 miSW (220°)6.9 mphClear
7:53 PM63.0 °F36.0 °F37 %30.07 in10.0 miCalmClear
8:53 PM55.9 °F36.0 °F47 %30.09 in10.0 miCalmClear
9:53 PM52.0 °F37.9 °F59 %30.12 in10.0 miCalmClear
10:53 PM50.0 °F35.1 °F57 %30.12 in10.0 miCalmClear
11:53 PM48.0 °F36.0 °F63 %30.13 in10.0 miCalmClear
Hourly data recorded from KGFL, located miles away from Glens Falls, New York







STORIES FROM OUR PARTNERS